sat.trackr.live / text

‹ back to catalog

ONEWEB-0599

NORAD 55155 · 2023-004R

PAYLOAD ACTIVE UNKNOWN

§ Identity

Operator
Country
UK
Launch date
2023-01-10
Launch site
AFETR
Launch vehicle
Mass (kg)
RCS (m²)

Purposes: comms

External: N2YO · Heavens-Above · Gunter

§ Orbital elements

Epoch: 2026-09-20T00:30:18.664704Z

Period
109.29 min
Inclination
87.9201°
Eccentricity
0.0001878
Mean motion
13.17650584 rev/d
Perigee alt
1,192.3 km
Apogee alt
1,195.1 km
Semi-major
7,571.8 km
B*
-9.5380e-5
RAAN
347.0324°
Arg perigee
92.8423°
Mean anomaly
267.2923°
Rev number
17,997

§ Raw data

ONEWEB-05991 55155U 23004R   26263.02104936 -.00000024  00000+0 -95380-4 0  99902 55155  87.9201 347.0324 0001878  92.8423 267.2923 13.17650584179979

JSON: /api/v1/satellites/55155 · /tle

For live sub-satellite position, see the globe view (requires WebGL).

§ Visibility from observer

Set your observer location to see the next 7 days of passes ≥ 10°. The values pass through the URL so the page stays shareable.

No JS? Fill the form by hand. The geolocation button needs JavaScript.